WA6MHA-11 Weather Reports


time (UTC)temp
C
wind
direction
speed
KPH
gust
KPH
rain 1hr
cm
rain 24hr
cm
rain mn
cm
humidity
%
barometer
mb
20260502130419 11 135 0.0 0.0 0.00 0.00 0.00 60 1015.1
20260502123209 10 85 0.0 1.6 0.00 0.00 0.00 60 1014.9
20260502122808 10 135 0.0 3.2 0.00 0.00 0.00 60 1014.8
20260502122407 10 135 1.6 3.2 0.00 0.00 0.00 60 1014.8
20260502121604 10 182 0.0 1.6 0.00 0.00 0.00 60 1014.7
20260502121202 10 135 1.6 1.6 0.00 0.00 0.00 60 1014.7
20260502120801 9 164 1.6 1.6 0.00 0.00 0.00 59 1014.8
20260502120401 9 135 1.6 3.2 0.00 0.00 0.00 59 1014.8
20260502115558 9 83 0.0 0.0 0.00 0.00 0.00 59 1014.8
20260502115156 9 78 0.0 0.0 0.00 0.00 0.00 59 1014.6
20260502114755 10 81 0.0 0.0 0.00 0.00 0.00 59 1014.6
20260502114354 10 81 0.0 0.0 0.00 0.00 0.00 59 1014.6
20260502113953 10 81 0.0 0.0 0.00 0.00 0.00 59 1014.5
20260502113552 9 81 0.0 0.0 0.00 0.00 0.00 59 1014.5
20260502112748 9 42 0.0 1.6 0.00 0.00 0.00 59 1014.4
20260502112347 9 81 0.0 0.0 0.00 0.00 0.00 59 1014.4
20260502111545 9 78 0.0 0.0 0.00 0.00 0.00 59 1014.5
20260502111143 10 42 0.0 0.0 0.00 0.00 0.00 59 1014.4
20260502110742 10 42 0.0 0.0 0.00 0.00 0.00 59 1014.3
20260502110340 10 81 0.0 0.0 0.00 0.00 0.00 59 1014.3
20260502105939 10 85 0.0 0.0 0.00 0.00 0.00 59 1014.3
20260502105538 10 81 0.0 0.0 0.00 0.00 0.00 59 1014.3
20260502104336 10 342 0.0 0.0 0.00 0.00 0.00 59 1014.2
20260502103933 10 315 0.0 0.0 0.00 0.00 0.00 59 1014.2
20260502103534 10 301 0.0 0.0 0.00 0.00 0.00 59 1014.2
20260502103131 10 306 0.0 0.0 0.00 0.00 0.00 59 1014.2
20260502100325 10 328 0.0 0.0 0.00 0.00 0.00 58 1014.3
20260502091508 11 301 0.0 0.0 0.00 0.00 0.00 1014.5
20260502091506 11 301 0.0 0.0 0.00 0.00 0.00 58 1014.5
20260502091104 11 310 0.0 0.0 0.00 0.00 0.00 58 1014.6
20260502090703 11 301 0.0 0.0 0.00 0.00 0.00 58 1014.6
20260502090302 11 310 0.0 0.0 0.00 0.00 0.00 57 1014.7
20260502071428 13 42 0.0 0.0 0.00 0.00 0.00 55 1015.5
20260502071026 13 45 0.0 0.0 0.00 0.00 0.00 55 1015.4
20260502070625 13 45 0.0 0.0 0.00 0.00 0.00 55 1015.3
20260502070224 13 40 0.0 0.0 0.00 0.00 0.00 55 1015.4
20260502065822 13 42 0.0 0.0 0.00 0.00 0.00 55 1015.4
20260502065421 13 40 0.0 0.0 0.00 0.00 0.00 55 1015.4
20260502065023 13 38 0.0 0.0 0.00 0.00 0.00 55 1015.4
20260502064619 13 45 0.0 0.0 0.00 0.00 0.00 55 1015.0
20260502064217 13 45 0.0 0.0 0.00 0.00 0.00 54 1015.3
20260502063816 13 45 0.0 0.0 0.00 0.00 0.00 54 1015.3
20260502063014 13 45 0.0 0.0 0.00 0.00 0.00 54 1015.2
20260502062615 13 38 0.0 0.0 0.00 0.00 0.00 54 1015.2
20260502062211 13 40 0.0 0.0 0.00 0.00 0.00 54 1015.2
20260502061810 14 83 0.0 0.0 0.00 0.00 0.00 54 1015.1
20260502061408 14 76 0.0 0.0 0.00 0.00 0.00 53 1015.2
20260502061007 14 76 0.0 0.0 0.00 0.00 0.00 53 1015.2
20260502060607 14 83 0.0 1.6 0.00 0.00 0.00 53 1015.2
20260502055803 14 135 3.2 3.2 0.00 0.00 0.00 53 1015.1
20260502055401 14 135 3.2 3.2 0.00 0.00 0.00 53 1015.1
20260502055003 14 135 1.6 4.8 0.00 0.00 0.00 53 1015.1
20260502054559 14 135 3.2 3.2 0.00 0.00 0.00 53 1015.2
20260502054158 14 83 3.2 3.2 0.00 0.00 0.00 53 1015.2
20260502053757 14 90 3.2 3.2 0.00 0.00 0.00 52 1015.2
20260502053355 14 81 3.2 3.2 0.00 0.00 0.00 52 1015.2
20260502052954 14 90 3.2 3.2 0.00 0.00 0.00 52 1015.3
20260502052553 14 135 3.2 3.2 0.00 0.00 0.00 52 1015.3
20260502052152 15 135 3.2 3.2 0.00 0.00 0.00 52 1015.3
20260502051750 15 135 3.2 4.8 0.00 0.00 0.00 52 1015.2
20260502051349 15 135 3.2 3.2 0.00 0.00 0.00 51 1015.2
20260502050947 15 130 3.2 3.2 0.00 0.00 0.00 51 1015.1
20260502050546 15 135 3.2 4.8 0.00 0.00 0.00 51 1015.1
20260502045744 15 135 3.2 4.8 0.00 0.00 0.00 51 1015.0
20260502045343 15 135 3.2 4.8 0.00 0.00 0.00 51 1015.0
20260502044942 15 135 3.2 4.8 0.00 0.00 0.00 50 1015.0
20260502044539 15 135 3.2 3.2 0.00 0.00 0.00 50 1015.0
20260502044138 15 135 3.2 6.4 0.00 0.00 0.00 50 1014.9
20260502043739 15 103 4.8 6.4 0.00 0.00 0.00 50 1014.9
20260502043337 15 135 4.8 8.0 0.00 0.00 0.00 49 1014.8
20260502042534 16 110 6.4 6.4 0.00 0.00 0.00 49 1014.7
20260502041731 16 135 3.2 3.2 0.00 0.00 0.00 48 1014.5
20260502041330 16 135 3.2 6.4 0.00 0.00 0.00 48 1014.5
20260502035724 17 123 3.2 6.4 0.00 0.00 0.00 47 1014.3
20260502035323 17 135 3.2 8.0 0.00 0.00 0.00 47 1014.2
20260502034927 17 135 6.4 6.4 0.00 0.00 0.00 46 1014.0
20260502034521 17 135 6.4 6.4 0.00 0.00 0.00 46 1014.1
20260502034126 17 135 4.8 4.8 0.00 0.00 0.00 45 1014.0
20260502033719 18 135 4.8 4.8 0.00 0.00 0.00 45 1013.9
20260502033318 18 135 3.2 3.2 0.00 0.00 0.00 45 1013.9
20260502032915 18 135 1.6 3.2 0.00 0.00 0.00 44 1013.7
20260502032514 18 108 1.6 9.7 0.00 0.00 0.00 44 1013.6
20260502032113 18 96 4.8 4.8 0.00 0.00 0.00 43 1013.6
20260502031712 18 177 0.0 1.6 0.00 0.00 0.00 43 1013.5
20260502031313 18 135 3.2 6.4 0.00 0.00 0.00 42 1013.4
20260502030508 19 135 4.8 4.8 0.00 0.00 0.00 41 1013.4
20260502030106 19 135 3.2 6.4 0.00 0.00 0.00 41 1013.4
20260502025705 19 103 3.2 6.4 0.00 0.00 0.00 40 1013.3
20260502025306 20 135 3.2 4.8 0.00 0.00 0.00 40 1013.3
20260502024100 20 135 4.8 6.4 0.00 0.00 0.00 38 1013.3
20260502023700 21 135 4.8 4.8 0.00 0.00 0.00 38 1013.2
20260502022858 21 117 3.2 4.8 0.00 0.00 0.00 37 1013.1
20260502022456 21 135 4.8 6.4 0.00 0.00 0.00 36 1013.0
20260502022054 22 112 4.8 6.4 0.00 0.00 0.00 36 1013.0
20260502021652 22 130 3.2 6.4 0.00 0.00 0.00 36 1013.0
20260502021251 22 135 4.8 6.4 0.00 0.00 0.00 35 1013.0
20260502020854 22 135 4.8 4.8 0.00 0.00 0.00 35 1012.9
20260502020048 23 135 4.8 6.4 0.00 0.00 0.00 34 1012.8
20260502014442 23 128 4.8 6.4 0.00 0.00 0.00 33 1012.7
20260502014041 24 119 6.4 8.0 0.00 0.00 0.00 32 1012.7
20260502013640 24 123 6.4 6.4 0.00 0.00 0.00 32 1012.7
20260502012837 24 128 6.4 8.0 0.00 0.00 0.00 32 1012.7
20260502012436 24 128 6.4 8.0 0.00 0.00 0.00 32 1012.6
20260502012035 24 135 6.4 8.0 0.00 0.00 0.00 31 1012.7
20260502011636 24 135 8.0 9.7 0.00 0.00 0.00 31 1012.7
20260502011233 24 135 8.0 9.7 0.00 0.00 0.00 31 1012.7
20260502010835 24 123 8.0 8.0 0.00 0.00 0.00 31 1012.7
20260502005628 24 137 11.3 12.9 0.00 0.00 0.00 30 1012.7
20260502005227 25 128 9.7 12.9 0.00 0.00 0.00 30 1012.7
20260502004824 25 141 9.7 11.3 0.00 0.00 0.00 30 1012.8
20260502004423 25 135 11.3 12.9 0.00 0.00 0.00 29 1012.7
20260502004021 26 139 11.3 11.3 0.00 0.00 0.00 29 1012.6
20260502003625 26 135 11.3 11.3 0.00 0.00 0.00 29 1012.8
20260502003314 26 135 8.0 8.0 0.00 0.00 0.00 29 1012.7
20260502003220 26 135 8.0 8.0 0.00 0.00 0.00 29 1012.7
20260502002819 27 108 4.8 11.3 0.00 0.00 0.00 29 1012.7
20260502002016 27 153 4.8 8.0 0.00 0.00 0.00 28 1012.6
20260502001621 28 200 6.4 9.7 0.00 0.00 0.00 29 1012.6
20260502001212 28 182 1.6 11.3 0.00 0.00 0.00 29 1012.7
20260502000853 28 193 4.8 11.3 0.00 0.00 0.00 29 1012.6
20260502000818 28 193 4.8 11.3 0.00 0.00 0.00 29 1012.6
20260502000410 27 153 8.0 11.3 0.00 0.00 0.00 28 1012.7
20260502000014 27 189 11.3 12.9 0.00 0.00 0.00 28 1012.7
20260501235206 26 139 11.3 16.1 0.00 0.00 0.00 29 1012.7
20260501234805 28 189 8.0 11.3 0.00 0.00 0.00 28 1012.7
20260501234404 28 137 4.8 12.9 0.00 0.00 0.00 28 1012.6
20260501234002 28 152 9.7 29.0 0.00 0.00 0.00 28 1012.7
20260501233159 29 170 4.8 14.5 0.00 0.00 0.00 28 1012.7
20260501231956 29 188 9.7 12.9 0.00 0.00 0.00 28 1012.6
20260501231555 29 146 8.0 11.3 0.00 0.00 0.00 27 1012.6
20260501231155 28 135 4.8 14.5 0.00 0.00 0.00 27 1012.6
20260501230751 27 139 12.9 20.9 0.00 0.00 0.00 28 1012.6
20260501230350 28 139 8.0 19.3 0.00 0.00 0.00 27 1012.6
20260501225950 28 135 12.9 17.7 0.00 0.00 0.00 27 1012.7
20260501225548 30 123 11.3 14.5 0.00 0.00 0.00 27 1012.8
20260501224748 30 182 12.9 12.9 0.00 0.00 0.00 27 1012.7
20260501223943 30 180 8.0 11.3 0.00 0.00 0.00 27 1012.8
20260501223542 30 180 4.8 11.3 0.00 0.00 0.00 27 1012.9
20260501222739 30 191 4.8 12.9 0.00 0.00 0.00 27 1013.0
20260501221936 30 128 12.9 12.9 0.00 0.00 0.00 27 1013.2
20260501221137 30 144 1.6 11.3 0.00 0.00 0.00 27 1013.4
20260501215132 29 193 6.4 11.3 0.00 0.00 0.00 27 1013.7
20260501214726 28 140 6.4 14.5 0.00 0.00 0.00 27 1013.8
20260501214325 29 135 8.0 16.1 0.00 0.00 0.00 28 1013.7
20260501213924 30 196 3.2 12.9 0.00 0.00 0.00 28 1013.7
20260501213524 30 137 12.9 12.9 0.00 0.00 0.00 28 1013.8
20260501213121 30 184 9.7 11.3 0.00 0.00 0.00 27 1013.9
20260501212720 30 164 3.2 6.4 0.00 0.00 0.00 27 1013.8
20260501212318 29 194 9.7 11.3 0.00 0.00 0.00 28 1013.9
20260501211917 29 107 4.8 14.5 0.00 0.00 0.00 28 1014.0
20260501211516 28 135 8.0 14.5 0.00 0.00 0.00 28 1014.0
20260501211115 29 180 4.8 16.1 0.00 0.00 0.00 28 1014.0
20260501210312 28 110 14.5 19.3 0.00 0.00 0.00 28 1014.0
20260501205911 30 135 8.0 11.3 0.00 0.00 0.00 28 1014.1
20260501205510 30 135 6.4 14.5 0.00 0.00 0.00 28 1014.1
20260501204708 29 180 8.0 12.9 0.00 0.00 0.00 28 1014.1
20260501204305 29 148 11.3 20.9 0.00 0.00 0.00 28 1014.2
20260501203904 29 144 4.8 11.3 0.00 0.00 0.00 28 1014.3
20260501203503 31 45 1.6 6.4 0.00 0.00 0.00 29 1014.2
20260501203102 31 301 1.6 4.8 0.00 0.00 0.00 29 1014.3
20260501202259 31 261 1.6 4.8 0.00 0.00 0.00 29 1014.3
20260501201857 31 48 1.6 1.6 0.00 0.00 0.00 30 1014.4
20260501201456 31 290 3.2 6.4 0.00 0.00 0.00 30 1014.4
20260501201055 30 289 0.0 9.7 0.00 0.00 0.00 30 1014.4
20260501200253 29 186 3.2 8.0 0.00 0.00 0.00 30 1014.5
20260501195853 29 92 1.6 6.4 0.00 0.00 0.00 30 1014.6
20260501194648 28 135 9.7 11.3 0.00 0.00 0.00 31 1014.8
20260501194246 28 78 6.4 8.0 0.00 0.00 0.00 31 1014.7
20260501193444 29 135 1.6 6.4 0.00 0.00 0.00 31 1014.9
20260501193042 28 274 3.2 4.8 0.00 0.00 0.00 31 1014.9
20260501192641 28 294 4.8 8.0 0.00 0.00 0.00 31 1014.9
20260501191839 27 276 4.8 4.8 0.00 0.00 0.00 31 1015.0
20260501191036 27 22 1.6 4.8 0.00 0.00 0.00 32 1015.1
20260501190634 27 288 1.6 4.8 0.00 0.00 0.00 32 1015.2
20260501190235 27 289 0.0 1.6 0.00 0.00 0.00 32 1015.3
20260501185433 25 167 3.2 4.8 0.00 0.00 0.00 32 1015.6
20260501184629 25 112 8.0 11.3 0.00 0.00 0.00 33 1015.6
20260501183825 25 213 1.6 11.3 0.00 0.00 0.00 33 1015.7
20260501183023 26 106 1.6 6.4 0.00 0.00 0.00 34 1015.8
20260501182221 25 135 1.6 6.4 0.00 0.00 0.00 35 1015.8
20260501181819 25 50 3.2 8.0 0.00 0.00 0.00 36 1015.9
20260501181418 25 5 1.6 3.2 0.00 0.00 0.00 36 1016.0
20260501181017 25 30 0.0 4.8 0.00 0.00 0.00 37 1016.0
20260501180616 24 348 0.0 8.0 0.00 0.00 0.00 38 1016.0
20260501180214 23 117 6.4 9.7 0.00 0.00 0.00 39 1016.1
20260501175813 23 99 4.8 11.3 0.00 0.00 0.00 39 1016.1
20260501175010 23 135 4.8 4.8 0.00 0.00 0.00 40 1016.2
20260501174610 23 321 0.0 3.2 0.00 0.00 0.00 41 1016.2
20260501174208 22 306 0.0 4.8 0.00 0.00 0.00 41 1016.3
20260501173405 21 215 1.6 4.8 0.00 0.00 0.00 42 1016.3
20260501172602 21 270 1.6 4.8 0.00 0.00 0.00 43 1016.3
20260501172201 21 296 3.2 4.8 0.00 0.00 0.00 43 1016.3
20260501171449 21 227 3.2 3.2 0.00 0.00 0.00 44 1016.3
20260501171359 21 227 3.2 3.2 0.00 0.00 0.00 44 1016.3
20260501171003 20 234 0.0 3.2 0.00 0.00 0.00 44 1016.4
20260501170602 20 198 3.2 4.8 0.00 0.00 0.00 45 1016.4
20260501163747 18 135 6.4 6.4 0.00 0.00 0.00 47 1016.4
20260501163346 18 81 0.0 3.2 0.00 0.00 0.00 48 1016.5
20260501162945 18 281 1.6 3.2 0.00 0.00 0.00 48 1016.4
20260501162544 18 135 1.6 4.8 0.00 0.00 0.00 48 1016.4
20260501162142 18 135 6.4 6.4 0.00 0.00 0.00 48 1016.3
20260501161740 18 180 0.0 0.0 0.00 0.00 0.00 48 1016.3
20260501161340 17 310 0.0 1.6 0.00 0.00 0.00 49 1016.3
20260501160938 17 330 1.6 1.6 0.00 0.00 0.00 49 1016.3
20260501160537 17 190 1.6 4.8 0.00 0.00 0.00 49 1016.3
20260501160136 17 186 0.0 6.4 0.00 0.00 0.00 50 1016.3
20260501155735 17 222 3.2 4.8 0.00 0.00 0.00 50 1016.2
20260501155333 17 184 3.2 3.2 0.00 0.00 0.00 50 1016.3
20260501154932 17 197 1.6 3.2 0.00 0.00 0.00 50 1016.3
20260501154530 16 42 0.0 1.6 0.00 0.00 0.00 51 1016.2
20260501154131 16 45 0.0 3.2 0.00 0.00 0.00 51 1016.2
20260501153327 16 38 6.4 6.4 0.00 0.00 0.00 51 1016.0
20260501152925 16 42 4.8 6.4 0.00 0.00 0.00 52 1016.0
20260501152524 16 74 4.8 6.4 0.00 0.00 0.00 52 1016.0
20260501152123 16 119 4.8 6.4 0.00 0.00 0.00 52 1016.0
20260501151722 15 117 1.6 4.8 0.00 0.00 0.00 53 1016.0
20260501151321 15 135 1.6 8.0 0.00 0.00 0.00 53 1015.9
20260501150919 15 90 6.4 8.0 0.00 0.00 0.00 53 1015.9
20260501150517 15 146 4.8 8.0 0.00 0.00 0.00 53 1016.0
20260501150116 15 112 3.2 6.4 0.00 0.00 0.00 53 1015.9
20260501145715 15 87 3.2 3.2 0.00 0.00 0.00 53 1015.9
20260501145314 15 215 1.6 3.2 0.00 0.00 0.00 54 1015.9
20260501144918 15 185 1.6 4.8 0.00 0.00 0.00 54 1015.9
20260501144512 15 123 3.2 3.2 0.00 0.00 0.00 54 1015.9
20260501143712 15 76 1.6 6.4 0.00 0.00 0.00 54 1015.8
20260501142906 14 135 3.2 4.8 0.00 0.00 0.00 55 1015.8
20260501142507 14 56 3.2 4.8 0.00 0.00 0.00 56 1015.7
20260501142104 14 230 0.0 1.6 0.00 0.00 0.00 56 1015.6